Warning: Javascript must be enabled to use all the features on this page!


Page Loading - Please Wait...

Click to hideNews Bulletins

Peak Streamflow for the Nation

USGS 07056000 Buffalo River near St. Joe, AR

Searcy County, Arkansas
Hydrologic Unit Code 11010005
Latitude  35°58'59", Longitude  92°44'50" NAD83
Drainage area 829  square miles
Gage datum 555.85 feet above NAVD88
Output formats
Table
Graph
Tab-separated file
peakfq (watstore) format
Reselect output format
Water
Year
Date Gage
Height
(feet)
Stream-
flow
(cfs)
1915 1915-08 50.50Bd 142,0007,Bd
1940 1940-04-11 13.79 13,000
1941 1941-01-01 13.70 12,800
1942 1941-10-31 20.80 32,000
1943 1943-05-10 39.70 96,900
1944 1944-02-28 15.95 19,300
1945 1945-04-15 41.00 100,000
1946 1946-05-25 25.65 46,200
1947 1946-12-12 22.92 37,500
1948 1948-01-01 19.34 27,300
1949 1949-01-24 38.80 91,100
1950 1950-01-04 25.58 46,200
1951 1951-02-20 27.57 50,900
1952 1952-04-12 22.30 35,400
1953 1953-03-18 20.63 29,400
1954 1954-05-02 22.70 35,200
1955 1955-03-21 25.11 42,200
1956 1956-02-02 16.10 18,700
1957 1957-04-04 31.30 62,600
1958 1958-03-09 16.70 19,900
1959 1959-04-19 20.11 24,900
1960 1960-05-20 22.88 31,600
1961 1961-05-06 28.66 53,300
1962 1962-01-22 12.34 9,430
1963 1963-03-17 9.15 4,820
1964 1964-04-05 25.12 40,400
1965 1965-04-03 14.70 13,800
1966 1966-02-09 37.46 85,900
1967 1967-05-15 13.85 10,900
1968 1968-03-21 28.16 50,400
1969 1969-01-30 35.45 74,900
1970 1970-04-19 24.87 38,500
1971 1970-10-27 16.11 14,700
1972 1971-12-10 43.40 102,000
1973 1973-04-22 38.26 79,300
1974 1973-11-25 45.41 111,000
1975 1975-02-23 19.23 20,500
1976 1976-06-24 21.40 25,700
1977 1977-03-28 29.15 47,000
1978 1978-03-24 24.07 32,500
1979 1979-04-12 23.73 32,200
1980 1979-12-24 12.31 7,660
1981 1981-08-17 20.32 23,100
1982 1982-01-31 32.62 58,100
1983 1982-12-03 53.75 158,000
1984 1984-05-07 27.41 40,200
1985 1985-02-23 38.47 80,700
1986 1985-11-19 24.26 33,100
1987 1987-02-16 18.45 19,200
1988 1987-12-26 27.29 42,700
1989 1989-02-14 25.33 36,500
1990 1990-05-03 42.10 98,800
1991 1991-04-14 21.45 26,000
1992 1991-10-29 28.03 43,100
1993 1993-01-04 31.84 55,700
1994 1993-11-15 20.98 23,800
1995 1994-11-05 35.49 69,200
1996 1996-09-27 32.99 59,800
1997 1996-11-07 35.13 67,800
1998 1998-01-05 21.39 24,700
1999 1999-05-05 17.91 17,600
2000 2000-06-18 30.04 49,700
2001 2001-02-16 23.10 29,100
2002 2002-03-20 31.36 54,200
2003 2003-05-17 17.82 17,400
2004 2004-04-24 46.46 119,000
2005 2005-01-04 21.38 24,700
2006 2006-04-30 17.21 16,200
2007 2006-12-01 30.60 51,600
2008 2008-03-19 49.41 134,000
2009 2009-09-22 19.34 23,500
2010 2009-10-30 28.28 48,000
2011 2011-04-26 35.53 71,600
2012 2012-03-22 20.78 27,100
2013 2013-06-01 15.79 15,300
2014 2014-03-16 23.74 33,600
2015 2015-05-11 31.02 54,800
2016 2015-12-28 45.58 109,000
2017 2017-04-30 34.47 67,500
2018 2018-02-25 18.58 20,800
2019 2019-08-24 20.22 25,400
2020 2020-01-11 25.92 40,200
?
  Peak Gage-Height Qualification Codes.
?
  Peak Streamflow Qualification Codes.